Leasat 1

operational
NORAD ID: 15384 Int'l Des: 1984-113 Owner: HCI Country: US
HEOCIRCULAR

Leasat 1について

説明を読み込み中...

リアルタイム位置

3D地球を読み込み中...

次回通過

高度履歴

Altitude vs Time

uPlot chart will show altitude changes over time

軌道要素

1 15384U 84113C 26061.08393810 -.00000234 00000-0 00000+0 0 9994
2 15384 11.4972 338.6342 0032991 298.0935 248.8227 0.98546066122862
Epoch: Mar 2, 2026 • Age: 46 hours

現在のステータス

高度 36416.3 km
速度 3.05 km/s
衛星直下点 10.45°N, 35.4°W
打ち上げ日 Nov 8, 1984
運用期間 41.3 years
タイプ other

技術仕様

分類 Payload
質量 3231.00 kg
乾燥質量 1230.00 kg
総質量 3231.00 kg
長さ 4.00 m
直径 4.30 m
スパン 6.20 m
形状 Cyl + Ant
製造者 HSES
バスタイプ HS-381
フェーズステータス In Orbit
所有者/国 HCI/US

大規模コンステレーション

Loading constellations...